E24YPM-1 Weather Reports


Display with metric or nautical units.
time (UTC)temp
F
wind
direction
speed
MPH
gust
MPH
rain 1hr
in
rain 24hr
in
rain mn
in
humidity
%
barometer
mb
20260507005710 94 0 0.0 0.0 0.00 0.00 0.00 47 1004.0
20260507004159 94 0 0.0 0.0 0.00 0.00 0.00 47 1004.0
20260507002644 94 0 0.0 0.0 0.00 0.00 0.00 46 1004.0
20260507001131 94 0 0.0 0.0 0.00 0.00 0.00 45 1003.0
20260506235618 93 0 0.0 0.0 0.00 0.00 0.00 45 1003.0
20260506234112 93 0 0.0 0.0 0.00 0.00 0.00 43 1003.0
20260506232553 93 0 0.0 0.0 0.00 0.00 0.00 42 1003.0
20260506231040 92 0 0.0 0.0 0.00 0.00 0.00 40 1003.0
20260506225529 92 0 0.0 0.0 0.00 0.00 0.00 37 1003.0
20260506224015 91 0 0.0 0.0 0.00 0.00 0.00 36 1003.0
20260506222509 91 0 0.0 0.0 0.00 0.00 0.00 33 1003.0
20260506220948 89 0 0.0 0.0 0.00 0.00 0.00 29 1003.0
20260506215436 89 0 0.0 0.0 0.00 0.00 0.00 28 1003.0
20260506213923 89 0 0.0 0.0 0.00 0.00 0.00 28 1002.0
20260506212411 89 0 0.0 0.0 0.00 0.00 0.00 28 1002.0
20260506210859 89 0 0.0 0.0 0.00 0.00 0.00 28 1002.0
20260506205346 89 0 0.0 0.0 0.00 0.00 0.00 28 1002.0
20260506203836 89 0 0.0 0.0 0.00 0.00 0.00 29 1002.0
20260506202316 89 0 0.0 0.0 0.00 0.00 0.00 29 1002.0
20260506200804 90 0 0.0 0.0 0.00 0.00 0.00 30 1002.0
20260506195247 90 0 0.0 0.0 0.00 0.00 0.00 31 1002.0
20260506194141 90 0 0.0 0.0 0.00 0.00 0.00 31 1002.0
20260506192640 90 0 0.0 0.0 0.00 0.00 0.00 30 1002.0
20260506192107 90 0 0.0 0.0 0.00 0.00 0.00 30 1002.0
20260506191011 91 0 0.0 0.0 0.00 0.00 0.00 30 1002.0
20260506185041 91 0 0.0 0.0 0.00 0.00 0.00 32 1002.0
20260506183529 91 0 0.0 0.0 0.00 0.00 0.00 33 1002.0
20260506182027 92 0 0.0 0.0 0.00 0.00 0.00 34 1002.0
20260506180506 91 0 0.0 0.0 0.00 0.00 0.00 36 1002.0
20260506174952 92 0 0.0 0.0 0.00 0.00 0.00 38 1002.0
20260506173440 94 0 0.0 0.0 0.00 0.00 0.00 41 1002.0
20260506171927 97 0 0.0 0.0 0.00 0.00 0.00 48 1003.0
20260506170415 98 0 0.0 0.0 0.00 0.00 0.00 50 1003.0
20260506164903 98 0 0.0 0.0 0.00 0.00 0.00 50 1003.0
20260506163350 98 0 0.0 0.0 0.00 0.00 0.00 50 1003.0
20260506162504 98 0 0.0 0.0 0.00 0.00 0.00 50 1003.0
20260506160325 98 0 0.0 0.0 0.00 0.00 0.00 50 1003.0
20260506154812 98 0 0.0 0.0 0.00 0.00 0.00 51 1003.0
20260506153302 99 0 0.0 0.0 0.00 0.00 0.00 50 1003.0
20260506151748 99 0 0.0 0.0 0.00 0.00 0.00 48 1003.0
20260506150236 99 0 0.0 0.0 0.00 0.00 0.00 48 1002.0
20260506144723 99 0 0.0 0.0 0.00 0.00 0.00 47 1002.0
20260506143210 99 0 0.0 0.0 0.00 0.00 0.00 46 1002.0
20260506141657 99 0 0.0 0.0 0.00 0.00 0.00 46 1002.0
20260506140145 99 0 0.0 0.0 0.00 0.00 0.00 47 1002.0
20260506134633 99 0 0.0 0.0 0.00 0.00 0.00 46 1002.0
20260506133120 99 0 0.0 0.0 0.00 0.00 0.00 46 1001.0
20260506131608 99 0 0.0 0.0 0.00 0.00 0.00 45 1001.0
20260506130055 99 0 0.0 0.0 0.00 0.00 0.00 46 1001.0
20260506124620 99 0 0.0 0.0 0.00 0.00 0.00 45 1000.0
20260506123030 99 0 0.0 0.0 0.00 0.00 0.00 45 1000.0
20260506121517 99 0 0.0 0.0 0.00 0.00 0.00 44 1000.0
20260506120005 98 0 0.0 0.0 0.00 0.00 0.00 46 1000.0
20260506114452 97 0 0.0 0.0 0.00 0.00 0.00 46 1000.0
20260506112940 97 0 0.0 0.0 0.00 0.00 0.00 46 1000.0
20260506111457 97 0 0.0 0.0 0.00 0.00 0.00 46 1000.0
20260506105914 97 0 0.0 0.0 0.00 0.00 0.00 45 1000.0
20260506104402 97 0 0.0 0.0 0.00 0.00 0.00 45 1000.0
20260506102854 97 0 0.0 0.0 0.00 0.00 0.00 44 1000.0
20260506101336 97 0 0.0 0.0 0.00 0.00 0.00 44 999.0
20260506095824 98 0 0.0 0.0 0.00 0.00 0.00 42 999.0
20260506094312 98 0 0.0 0.0 0.00 0.00 0.00 41 1000.0
20260506092801 98 0 0.0 0.0 0.00 0.00 0.00 41 1000.0
20260506091246 98 0 0.0 0.0 0.00 0.00 0.00 43 1000.0
20260506085734 99 0 0.0 0.0 0.00 0.00 0.00 42 1000.0
20260506084221 98 0 0.0 0.0 0.00 0.00 0.00 44 1000.0
20260506082709 99 0 0.0 0.0 0.00 0.00 0.00 44 1000.0
20260506081156 99 0 0.0 0.0 0.00 0.00 0.00 45 1000.0
20260506072619 98 0 0.0 0.0 0.00 0.00 0.00 46 1001.0
20260506071109 98 0 0.0 0.0 0.00 0.00 0.00 45 1001.0
20260506061329 97 0 0.0 0.0 0.00 0.00 0.00 48 1003.0
20260506050921 98 0 0.0 0.0 0.00 0.00 0.00 49 1004.0
20260506043857 96 0 0.0 0.0 0.00 0.00 0.00 50 1004.0
20260506042345 96 0 0.0 0.0 0.00 0.00 0.00 51 1004.0
20260506040918 95 0 0.0 0.0 0.00 0.00 0.00 52 1005.0
20260506035318 95 0 0.0 0.0 0.00 0.00 0.00 53 1005.0
20260506033806 95 0 0.0 0.0 0.00 0.00 0.00 53 1005.0
20260506032254 95 0 0.0 0.0 0.00 0.00 0.00 53 1005.0
20260506030740 94 0 0.0 0.0 0.00 0.00 0.00 53 1005.0
20260506025228 93 0 0.0 0.0 0.00 0.00 0.00 53 1005.0
20260506023716 93 0 0.0 0.0 0.00 0.00 0.00 50 1005.0
20260506022204 93 0 0.0 0.0 0.00 0.00 0.00 50 1005.0
20260506020651 93 0 0.0 0.0 0.00 0.00 0.00 50 1005.0
20260506015139 93 0 0.0 0.0 0.00 0.00 0.00 50 1005.0
20260506013627 93 0 0.0 0.0 0.00 0.00 0.00 51 1005.0
20260506012115 93 0 0.0 0.0 0.00 0.00 0.00 51 1005.0
20260506010602 93 0 0.0 0.0 0.00 0.00 0.00 51 1005.0